TimeCDT,TemperatureF,Dew PointF,Humidity,Sea Level PressureIn,VisibilityMPH,Wind Direction,Wind SpeedMPH,Gust SpeedMPH,PrecipitationIn,Events,Conditions,WindDirDegrees,DateUTC
12:15 AM,36.1,23.7,61,30.01,10.0,West,4.6,-,N/A,,Clear,280,2013-04-05 05:15:00
12:35 AM,36.0,24.6,63,30.00,10.0,West,5.8,-,N/A,,Clear,270,2013-04-05 05:35:00
12:55 AM,37.8,24.4,59,30.01,10.0,West,5.8,-,N/A,,Clear,270,2013-04-05 05:55:00
1:15 AM,36.0,25.2,65,30.01,10.0,West,5.8,-,N/A,,Clear,270,2013-04-05 06:15:00
1:35 AM,34.2,24.8,69,30.01,10.0,WNW,4.6,-,N/A,,Clear,290,2013-04-05 06:35:00
1:55 AM,35.8,25.3,66,30.02,10.0,NW,3.5,-,N/A,,Clear,310,2013-04-05 06:55:00
2:15 AM,40.8,28.4,61,30.02,10.0,NW,4.6,-,N/A,,Clear,320,2013-04-05 07:15:00
2:35 AM,41.5,30.7,65,30.02,10.0,NNW,4.6,-,N/A,,Clear,330,2013-04-05 07:35:00
2:55 AM,41.5,31.5,67,30.02,10.0,NNW,5.8,-,N/A,,Clear,330,2013-04-05 07:55:00
3:15 AM,41.2,30.9,67,30.03,10.0,NNW,4.6,-,N/A,,Clear,330,2013-04-05 08:15:00
3:35 AM,40.5,30.6,68,30.03,10.0,NNW,3.5,-,N/A,,Clear,340,2013-04-05 08:35:00
3:55 AM,39.9,30.9,70,30.04,10.0,Calm,Calm,-,N/A,,Clear,0,2013-04-05 08:55:00
4:15 AM,38.7,30.2,72,30.05,10.0,NNW,5.8,-,N/A,,Clear,340,2013-04-05 09:15:00
4:35 AM,39.9,29.5,66,30.06,10.0,NNW,6.9,-,N/A,,Clear,340,2013-04-05 09:35:00
4:55 AM,39.2,29.3,68,30.07,10.0,North,6.9,-,N/A,,Clear,350,2013-04-05 09:55:00
5:15 AM,38.7,28.6,67,30.07,10.0,NNW,5.8,-,N/A,,Clear,340,2013-04-05 10:15:00
5:35 AM,38.3,28.0,67,30.09,10.0,North,8.1,-,N/A,,Clear,350,2013-04-05 10:35:00
5:55 AM,38.3,28.0,67,30.10,10.0,North,9.2,-,N/A,,Clear,360,2013-04-05 10:55:00
6:15 AM,37.0,29.1,73,30.10,10.0,North,8.1,-,N/A,,Clear,360,2013-04-05 11:15:00
6:35 AM,36.0,31.1,82,30.12,7.0,North,9.2,-,N/A,,Clear,10,2013-04-05 11:35:00
6:55 AM,36.0,31.8,85,30.12,7.0,North,10.4,17.3,N/A,,Clear,360,2013-04-05 11:55:00
7:15 AM,36.5,31.6,83,30.13,7.0,North,11.5,17.3,N/A,,Clear,10,2013-04-05 12:15:00
7:35 AM,37.4,30.4,76,30.14,10.0,North,15.0,20.7,N/A,,Clear,10,2013-04-05 12:35:00
7:55 AM,38.5,28.9,69,30.15,10.0,NNE,18.4,23.0,N/A,,Clear,20,2013-04-05 12:55:00
8:15 AM,39.7,27.7,62,30.16,10.0,NNE,17.3,21.9,N/A,,Clear,20,2013-04-05 13:15:00
8:35 AM,41.4,27.5,58,30.16,10.0,NNE,18.4,21.9,N/A,,Clear,30,2013-04-05 13:35:00
8:55 AM,42.4,26.8,54,30.16,10.0,NE,15.0,23.0,N/A,,Clear,40,2013-04-05 13:55:00
9:15 AM,44.2,27.3,51,30.17,10.0,NNE,15.0,19.6,N/A,,Clear,30,2013-04-05 14:15:00
9:35 AM,45.0,27.0,49,30.17,10.0,NE,18.4,25.3,N/A,,Clear,50,2013-04-05 14:35:00
9:55 AM,45.9,27.0,48,30.18,10.0,NNE,17.3,23.0,N/A,,Clear,20,2013-04-05 14:55:00
10:15 AM,46.6,26.6,46,30.19,10.0,NE,13.8,19.6,N/A,,Clear,40,2013-04-05 15:15:00
10:35 AM,47.5,26.1,43,30.19,10.0,NE,16.1,20.7,N/A,,Clear,40,2013-04-05 15:35:00
10:55 AM,47.5,25.3,42,30.19,10.0,NE,15.0,20.7,N/A,,Clear,40,2013-04-05 15:55:00
11:15 AM,48.2,25.0,40,30.20,10.0,North,13.8,20.7,N/A,,Clear,10,2013-04-05 16:15:00
11:35 AM,48.9,24.8,39,30.20,10.0,NNE,13.8,-,N/A,,Clear,20,2013-04-05 16:35:00
11:55 AM,49.3,24.1,37,30.20,10.0,NNE,12.7,17.3,N/A,,Clear,30,2013-04-05 16:55:00
12:15 PM,49.5,23.2,36,30.20,10.0,NNE,15.0,19.6,N/A,,Clear,30,2013-04-05 17:15:00
12:35 PM,49.1,21.9,34,30.19,10.0,North,15.0,18.4,N/A,,Clear,360,2013-04-05 17:35:00
12:55 PM,50.0,21.9,33,30.18,10.0,NNE,13.8,-,N/A,,Clear,20,2013-04-05 17:55:00
1:15 PM,50.2,21.9,33,30.18,10.0,NE,15.0,-,N/A,,Clear,40,2013-04-05 18:15:00
1:35 PM,49.1,18.9,30,30.17,10.0,NE,15.0,20.7,N/A,,Clear,50,2013-04-05 18:35:00
1:55 PM,49.3,18.0,29,30.17,10.0,NE,11.5,19.6,N/A,,Clear,40,2013-04-05 18:55:00
2:15 PM,49.3,17.2,28,30.17,10.0,North,11.5,16.1,N/A,,Clear,360,2013-04-05 19:15:00
2:35 PM,50.0,18.5,29,30.15,10.0,NNE,11.5,18.4,N/A,,Clear,30,2013-04-05 19:35:00
2:55 PM,50.4,18.9,29,30.14,10.0,NNE,15.0,-,N/A,,Clear,30,2013-04-05 19:55:00
3:15 PM,50.0,17.8,28,30.14,10.0,NNE,9.2,18.4,N/A,,Clear,30,2013-04-05 20:15:00
3:35 PM,49.8,17.1,27,30.15,10.0,NNE,11.5,18.4,N/A,,Clear,20,2013-04-05 20:35:00
3:55 PM,50.0,17.2,27,30.15,10.0,NNE,10.4,17.3,N/A,,Clear,30,2013-04-05 20:55:00
4:15 PM,48.4,16.0,27,30.15,10.0,NNE,11.5,-,N/A,,Clear,20,2013-04-05 21:15:00
4:35 PM,47.8,14.7,27,30.16,10.0,NNE,10.4,-,N/A,,Clear,20,2013-04-05 21:35:00
4:55 PM,47.7,16.0,28,30.16,10.0,North,10.4,-,N/A,,Clear,360,2013-04-05 21:55:00
5:15 PM,48.0,16.3,28,30.16,10.0,North,10.4,-,N/A,,Clear,10,2013-04-05 22:15:00
5:35 PM,47.1,16.9,30,30.17,10.0,NNE,9.2,-,N/A,,Clear,20,2013-04-05 22:35:00
5:55 PM,45.7,18.5,34,30.16,10.0,North,9.2,-,N/A,,Clear,10,2013-04-05 22:55:00
6:15 PM,43.7,19.4,38,30.17,10.0,NNE,10.4,-,N/A,,Clear,30,2013-04-05 23:15:00
6:35 PM,42.3,19.0,39,30.17,10.0,NNE,9.2,-,N/A,,Clear,30,2013-04-05 23:35:00
6:55 PM,41.0,21.2,45,30.17,10.0,NNE,10.4,-,N/A,,Clear,30,2013-04-05 23:55:00
7:15 PM,40.1,21.7,48,30.17,10.0,NE,12.7,-,N/A,,Scattered Clouds,40,2013-04-06 00:15:00
7:35 PM,38.8,21.2,49,30.18,10.0,NE,13.8,-,N/A,,Mostly Cloudy,50,2013-04-06 00:35:00
7:55 PM,37.8,22.1,53,30.18,10.0,NE,9.2,-,N/A,,Mostly Cloudy,40,2013-04-06 00:55:00
8:15 PM,36.9,21.6,54,30.19,10.0,NE,12.7,-,N/A,,Mostly Cloudy,50,2013-04-06 01:15:00
8:35 PM,36.1,21.9,56,30.19,10.0,NE,11.5,-,N/A,,Scattered Clouds,40,2013-04-06 01:35:00
8:55 PM,35.2,22.5,60,30.19,10.0,NE,12.7,-,N/A,,Scattered Clouds,40,2013-04-06 01:55:00
9:15 PM,35.1,21.7,58,30.19,10.0,NE,13.8,-,N/A,,Mostly Cloudy,50,2013-04-06 02:15:00
9:35 PM,34.5,23.5,64,30.18,10.0,NE,11.5,-,N/A,,Mostly Cloudy,50,2013-04-06 02:35:00
9:55 PM,34.7,24.8,67,30.17,10.0,ENE,9.2,-,N/A,,Overcast,70,2013-04-06 02:55:00
10:15 PM,34.3,24.4,67,30.16,10.0,East,11.5,-,N/A,,Mostly Cloudy,80,2013-04-06 03:15:00
10:35 PM,34.7,24.8,67,30.14,10.0,East,10.4,-,N/A,,Mostly Cloudy,90,2013-04-06 03:35:00
10:55 PM,34.7,25.5,69,30.13,10.0,East,13.8,-,N/A,,Overcast,90,2013-04-06 03:55:00
11:15 PM,34.7,24.8,67,30.12,10.0,East,12.7,-,N/A,,Mostly Cloudy,80,2013-04-06 04:15:00
11:35 PM,34.7,25.0,68,30.15,10.0,NE,6.9,-,N/A,,Scattered Clouds,50,2013-04-06 04:35:00
11:55 PM,34.3,25.3,70,30.15,10.0,ENE,9.2,-,N/A,,Clear,60,2013-04-06 04:55:00